When you browse on this site, cookies collect data to enhance your experience and personalize the content and advertising you see.
Visit our Privacy Policy to learn more. By continuing to use the site, you agree to this use of cookies and data.
  • In Österreich
  • Länderverzeichnis
  • Für 7 Tage
  • Wassertemperatur
  • Wetterkarte
  • News
  • Widgets
  • user-avatar
    Anmelden

    Stündliche Wetter Sopó

    Heute, 14 November, Donnerstag

    Zeit Temperatur Niederschläge Wind Luftdruck Luftfeuchtigkeit
    00:00 +13°C° 0.9 mm 1 m/S 555 mmHg 95%
    01:00 +13°C° 0.9 mm 1 m/S 555 mmHg 95%
    02:00 +12°C° 0.3 mm 1 m/S 555 mmHg 95%
    03:00 +12°C° 0.3 mm 1 m/S 555 mmHg 94%
    04:00 +11°C° 0.3 mm 0 m/S 555 mmHg 94%
    05:00 +11°C° 0 mm 0 m/S 555 mmHg 92%
    06:00 +12°C° 0 mm 0 m/S 556 mmHg 91%
    07:00 +12°C° 0 mm 0 m/S 556 mmHg 90%
    08:00 +15°C° 0 mm 1 m/S 558 mmHg 81%
    09:00 +18°C° 0 mm 1 m/S 559 mmHg 72%
    10:00 +20°C° 0 mm 1 m/S 560 mmHg 63%
    11:00 +20°C° 1 mm 1 m/S 559 mmHg 69%
    12:00 +20°C° 1 mm 1 m/S 558 mmHg 75%
    13:00 +19°C° 1 mm 1 m/S 557 mmHg 81%
    14:00 +18°C° 1.8 mm 1 m/S 556 mmHg 85%
    15:00 +18°C° 1.8 mm 1 m/S 556 mmHg 88%
    16:00 +16°C° 1.8 mm 1 m/S 555 mmHg 92%
    17:00 +15°C° 2.7 mm 1 m/S 555 mmHg 93%
    18:00 +14°C° 2.7 mm 1 m/S 555 mmHg 94%
    19:00 +14°C° 2.7 mm 1 m/S 555 mmHg 96%
    20:00 +13°C° 1.1 mm 0 m/S 555 mmHg 95%
    21:00 +12°C° 1.1 mm 0 m/S 556 mmHg 95%
    22:00 +12°C° 1.1 mm 0 m/S 556 mmHg 94%
    23:00 +12°C° 0.4 mm 0 m/S 556 mmHg 94%

    Morgen, 15 November, Freitag

    Zeit Temperatur Niederschläge Wind Luftdruck Luftfeuchtigkeit
    00:00 +12°C° 0.4 mm 0 m/S 555 mmHg 94%
    01:00 +12°C° 0.4 mm 0 m/S 555 mmHg 94%
    02:00 +11°C° 0.1 mm 0 m/S 555 mmHg 94%
    03:00 +11°C° 0.1 mm 0 m/S 555 mmHg 95%
    04:00 +11°C° 0.1 mm 0 m/S 555 mmHg 95%
    05:00 +11°C° 0 mm 0 m/S 555 mmHg 94%
    06:00 +12°C° 0 mm 0 m/S 556 mmHg 94%
    07:00 +12°C° 0 mm 0 m/S 556 mmHg 93%
    08:00 +14°C° 0.3 mm 0 m/S 557 mmHg 88%
    09:00 +16°C° 0.3 mm 1 m/S 558 mmHg 83%
    10:00 +19°C° 0.3 mm 1 m/S 559 mmHg 79%
    11:00 +19°C° 1.1 mm 1 m/S 558 mmHg 79%
    12:00 +19°C° 1.1 mm 1 m/S 557 mmHg 80%
    13:00 +19°C° 1.1 mm 1 m/S 557 mmHg 80%
    14:00 +19°C° 1.2 mm 1 m/S 556 mmHg 82%
    15:00 +18°C° 1.2 mm 1 m/S 556 mmHg 85%
    16:00 +18°C° 1.2 mm 1 m/S 555 mmHg 87%
    17:00 +16°C° 1 mm 1 m/S 555 mmHg 89%
    18:00 +14°C° 1 mm 1 m/S 555 mmHg 92%
    19:00 +13°C° 1 mm 1 m/S 555 mmHg 94%
    20:00 +13°C° 0.4 mm 1 m/S 555 mmHg 94%
    21:00 +13°C° 0.4 mm 1 m/S 555 mmHg 93%
    22:00 +12°C° 0.4 mm 1 m/S 555 mmHg 93%
    23:00 +12°C° 0.1 mm 1 m/S 555 mmHg 94%

    übermorgen, 16 November, Samstag

    Zeit Temperatur Niederschläge Wind Luftdruck Luftfeuchtigkeit
    00:00 +12°C° 0.1 mm 1 m/S 554 mmHg 94%
    01:00 +11°C° 0.1 mm 1 m/S 554 mmHg 95%
    02:00 +11°C° 0.4 mm 1 m/S 553 mmHg 96%
    03:00 +11°C° 0.4 mm 1 m/S 553 mmHg 96%
    04:00 +11°C° 0.4 mm 1 m/S 553 mmHg 97%
    05:00 +12°C° 0.3 mm 1 m/S 554 mmHg 97%
    06:00 +12°C° 0.3 mm 1 m/S 554 mmHg 97%
    07:00 +12°C° 0.3 mm 1 m/S 555 mmHg 97%
    08:00 +13°C° 0.1 mm 1 m/S 556 mmHg 93%
    09:00 +14°C° 0.1 mm 1 m/S 556 mmHg 89%
    10:00 +15°C° 0.1 mm 1 m/S 557 mmHg 85%
    11:00 +16°C° 0.6 mm 1 m/S 556 mmHg 83%
    12:00 +18°C° 0.6 mm 1 m/S 556 mmHg 80%
    13:00 +18°C° 0.6 mm 2 m/S 556 mmHg 78%
    14:00 +19°C° 1.2 mm 1 m/S 555 mmHg 81%
    15:00 +18°C° 1.2 mm 1 m/S 555 mmHg 84%
    16:00 +16°C° 1.2 mm 1 m/S 554 mmHg 87%
    17:00 +15°C° 0.2 mm 1 m/S 554 mmHg 89%
    18:00 +13°C° 0.2 mm 1 m/S 553 mmHg 92%
    19:00 +12°C° 0.2 mm 1 m/S 553 mmHg 94%
    20:00 +12°C° 0 mm 1 m/S 553 mmHg 93%
    21:00 +11°C° 0 mm 1 m/S 553 mmHg 93%
    22:00 +11°C° 0 mm 1 m/S 553 mmHg 92%
    23:00 +10°C° 0 mm 1 m/S 553 mmHg 91%

    17 November, Sonntag

    Zeit Temperatur Niederschläge Wind Luftdruck Luftfeuchtigkeit
    00:00 +10°C° 0 mm 1 m/S 553 mmHg 91%
    01:00 +10°C° 0 mm 1 m/S 552 mmHg 90%
    02:00 +10°C° 0 mm 1 m/S 552 mmHg 91%
    03:00 +10°C° 0 mm 1 m/S 552 mmHg 91%
    04:00 +10°C° 0 mm 1 m/S 552 mmHg 91%
    05:00 +10°C° 0 mm 1 m/S 553 mmHg 90%
    06:00 +11°C° 0 mm 1 m/S 554 mmHg 90%
    07:00 +11°C° 0 mm 0 m/S 554 mmHg 89%
    08:00 +14°C° 0.1 mm 1 m/S 556 mmHg 82%
    09:00 +16°C° 0.1 mm 1 m/S 557 mmHg 74%
    10:00 +19°C° 0.1 mm 1 m/S 558 mmHg 67%
    11:00 +19°C° 0.7 mm 1 m/S 557 mmHg 72%
    12:00 +19°C° 0.7 mm 1 m/S 556 mmHg 76%
    13:00 +18°C° 0.7 mm 2 m/S 555 mmHg 81%
    14:00 +18°C° 1 mm 1 m/S 555 mmHg 82%
    15:00 +18°C° 1 mm 1 m/S 554 mmHg 83%
    16:00 +18°C° 1 mm 1 m/S 554 mmHg 85%
    17:00 +15°C° 0.4 mm 1 m/S 553 mmHg 88%
    18:00 +14°C° 0.4 mm 1 m/S 553 mmHg 91%
    19:00 +12°C° 0.4 mm 1 m/S 553 mmHg 94%
    20:00 +12°C° 0 mm 1 m/S 553 mmHg 94%
    21:00 +11°C° 0 mm 1 m/S 553 mmHg 94%
    22:00 +11°C° 0 mm 1 m/S 553 mmHg 93%
    23:00 +11°C° 0 mm 1 m/S 553 mmHg 93%

    18 November, Montag

    Zeit Temperatur Niederschläge Wind Luftdruck Luftfeuchtigkeit
    00:00 +10°C° 0 mm 1 m/S 553 mmHg 94%
    01:00 +10°C° 0 mm 1 m/S 553 mmHg 94%
    02:00 +10°C° 0 mm 1 m/S 553 mmHg 94%
    03:00 +9°C° 0 mm 0 m/S 553 mmHg 94%
    04:00 +10°C° 0 mm 0 m/S 553 mmHg 94%
    05:00 +10°C° 0 mm 0 m/S 553 mmHg 94%
    06:00 +11°C° 0 mm 0 m/S 554 mmHg 93%
    07:00 +11°C° 0 mm 0 m/S 555 mmHg 93%
    08:00 +14°C° 0.1 mm 1 m/S 556 mmHg 86%
    09:00 +16°C° 0.1 mm 1 m/S 557 mmHg 79%
    10:00 +20°C° 0.1 mm 1 m/S 558 mmHg 72%
    11:00 +19°C° 1.2 mm 1 m/S 557 mmHg 76%
    12:00 +19°C° 1.2 mm 1 m/S 556 mmHg 81%
    13:00 +18°C° 1.2 mm 1 m/S 556 mmHg 85%
    14:00 +18°C° 1.2 mm 1 m/S 555 mmHg 86%
    15:00 +16°C° 1.2 mm 1 m/S 555 mmHg 87%
    16:00 +16°C° 1.2 mm 1 m/S 554 mmHg 88%
    17:00 +15°C° 0.8 mm 1 m/S 554 mmHg 90%
    18:00 +14°C° 0.8 mm 1 m/S 554 mmHg 93%
    19:00 +12°C° 0.8 mm 0 m/S 554 mmHg 95%
    20:00 +12°C° 0.1 mm 0 m/S 554 mmHg 95%
    21:00 +11°C° 0.1 mm 0 m/S 554 mmHg 95%
    22:00 +11°C° 0.1 mm 0 m/S 554 mmHg 95%
    23:00 +10°C° 0 mm 0 m/S 554 mmHg 95%

    19 November, Dienstag

    Zeit Temperatur Niederschläge Wind Luftdruck Luftfeuchtigkeit
    00:00 +11°C° 0 mm 1 m/S 553 mmHg 95%
    01:00 +11°C° 0 mm 1 m/S 553 mmHg 95%
    02:00 +10°C° 0 mm 1 m/S 553 mmHg 95%
    03:00 +10°C° 0 mm 1 m/S 553 mmHg 95%
    04:00 +9°C° 0 mm 0 m/S 553 mmHg 95%
    05:00 +10°C° 0 mm 0 m/S 553 mmHg 94%
    06:00 +10°C° 0 mm 0 m/S 554 mmHg 92%
    07:00 +11°C° 0 mm 0 m/S 555 mmHg 91%
    08:00 +14°C° 0 mm 0 m/S 557 mmHg 82%
    09:00 +18°C° 0 mm 1 m/S 558 mmHg 72%
    10:00 +20°C° 0 mm 1 m/S 559 mmHg 63%
    11:00 +20°C° 0.5 mm 1 m/S 558 mmHg 67%
    12:00 +20°C° 0.5 mm 1 m/S 558 mmHg 71%
    13:00 +19°C° 0.5 mm 1 m/S 557 mmHg 75%
    14:00 +19°C° 0.9 mm 1 m/S 556 mmHg 79%
    15:00 +18°C° 0.9 mm 1 m/S 555 mmHg 84%
    16:00 +16°C° 0.9 mm 1 m/S 554 mmHg 89%
    17:00 +15°C° 0.7 mm 1 m/S 555 mmHg 91%
    18:00 +13°C° 0.7 mm 0 m/S 555 mmHg 93%
    19:00 +12°C° 0.7 mm 0 m/S 555 mmHg 96%
    20:00 +12°C° 0.6 mm 0 m/S 555 mmHg 95%
    21:00 +11°C° 0.6 mm 0 m/S 555 mmHg 95%
    22:00 +11°C° 0.6 mm 0 m/S 555 mmHg 95%
    23:00 +11°C° 0.2 mm 0 m/S 555 mmHg 95%
    Mehr zeigen